K2MST Weather Reports


time (UTC)temp
C
wind
direction
speed
KPH
gust
KPH
rain 1hr
cm
rain 24hr
cm
rain mn
cm
humidity
%
barometer
mb
20260504231018 24 225 4.8 11.3 0.00 0.00 0.00 29 1001.4
20260504230038 24 225 4.8 14.5 0.00 0.00 0.00 28 1001.4
20260504225018 24 225 6.4 14.5 0.00 0.00 0.00 28 1001.5
20260504224037 24 248 8.0 19.3 0.00 0.00 0.00 29 1001.6
20260504223017 24 248 11.3 25.7 0.00 0.00 0.00 29 1001.8
20260504222017 24 225 11.3 24.1 0.00 0.00 0.00 28 1001.8
20260504221017 24 225 14.5 27.4 0.00 0.00 0.00 29 1001.8
20260504220017 24 248 11.3 20.9 0.00 0.00 0.00 30 1001.8
20260504215017 24 248 9.7 17.7 0.00 0.00 0.00 30 1001.8
20260504214017 24 225 12.9 24.1 0.00 0.00 0.00 29 1001.9
20260504213017 24 270 12.9 24.1 0.00 0.00 0.00 30 1002.0
20260504212017 25 225 11.3 24.1 0.00 0.00 0.00 31 1001.9
20260504211017 24 248 16.1 25.7 0.00 0.00 0.00 30 1002.1
20260504210017 24 248 14.5 29.0 0.00 0.00 0.00 31 1002.0
20260504205017 24 248 9.7 24.1 0.00 0.00 0.00 32 1002.1
20260504204017 23 225 16.1 30.6 0.00 0.00 0.00 33 1002.2
20260504203037 23 270 14.5 27.4 0.00 0.00 0.00 33 1002.3
20260504202017 23 248 14.5 27.4 0.00 0.00 0.00 33 1002.5
20260504201017 23 203 16.1 33.8 0.00 0.00 0.00 34 1002.6
20260504200017 23 248 16.1 30.6 0.00 0.00 0.00 35 1002.7
20260504195057 23 225 19.3 29.0 0.00 0.00 0.00 35 1002.8
20260504194018 23 248 11.3 27.4 0.00 0.00 0.00 35 1003.0
20260504193017 23 225 17.7 32.2 0.00 0.00 0.00 35 1003.1
20260504192019 22 225 19.3 35.4 0.00 0.00 0.00 37 1003.3
20260504191039 22 248 19.3 38.6 0.00 0.00 0.00 38 1003.4
20260504190019 22 225 14.5 27.4 0.00 0.00 0.00 39 1003.5
20260504185019 22 225 12.9 24.1 0.00 0.00 0.00 39 1003.5
20260504184018 22 248 11.3 25.7 0.00 0.00 0.00 39 1003.6
20260504183019 22 270 9.7 19.3 0.00 0.00 0.00 39 1003.7
20260504182019 22 248 17.7 53.1 0.00 0.00 0.00 39 1003.9
20260504181019 22 270 16.1 27.4 0.00 0.00 0.00 40 1004.0
20260504180039 21 270 14.5 32.2 0.00 0.00 0.00 40 1004.0
20260504175019 22 248 16.1 27.4 0.00 0.00 0.00 40 1004.0
20260504174019 21 248 14.5 30.6 0.00 0.00 0.00 40 1004.1
20260504173039 21 248 12.9 25.7 0.00 0.00 0.00 40 1004.1
20260504172018 21 225 11.3 27.4 0.00 0.00 0.00 40 1004.1
20260504171018 21 248 14.5 22.5 0.00 0.00 0.00 41 1004.3
20260504151038 17 248 11.3 29.0 0.00 0.00 0.00 44 1005.5
20260504141018 15 225 14.5 27.4 0.00 0.00 0.00 46 1005.8
20260504081018 11 225 9.7 17.7 0.00 0.00 0.00 50 1006.5
20260504050018 12 225 1.6 4.8 0.00 0.00 0.00 52 1007.1
20260504045018 12 248 3.2 9.7 0.00 0.00 0.00 53 1007.1
20260504044018 11 0.0 0.0 0.00 0.00 0.00 57 1007.1
20260504043018 11 0.0 1.6 0.00 0.00 0.00 59 1007.2
20260504042018 11 0.0 0.0 0.00 0.00 0.00 59 1007.2
20260504041018 11 158 1.6 3.2 0.00 0.00 0.00 60 1007.3
20260504040018 11 158 1.6 4.8 0.00 0.00 0.00 61 1007.4
20260504035018 11 158 1.6 3.2 0.00 0.00 0.00 62 1007.4
20260504034018 11 158 1.6 3.2 0.00 0.00 0.00 63 1007.6
20260504033018 11 180 3.2 6.4 0.00 0.00 0.00 64 1007.5
20260504032018 11 180 1.6 4.8 0.00 0.00 0.00 64 1007.8
20260504031017 11 180 3.2 6.4 0.00 0.00 0.00 64 1007.7
20260504030018 11 180 3.2 8.0 0.00 0.00 0.00 64 1007.8
20260504025018 11 158 1.6 4.8 0.00 0.00 0.00 64 1007.8
20260504024038 11 225 1.6 4.8 0.00 0.00 0.00 63 1007.9
20260504023038 11 225 3.2 6.4 0.00 0.00 0.00 63 1008.2
20260504022017 11 248 6.4 14.5 0.00 0.00 0.00 63 1008.4
20260504021017 11 248 4.8 14.5 0.00 0.00 0.00 64 1008.5
20260504020038 11 270 6.4 16.1 0.00 0.00 0.00 64 1008.7
20260504015017 11 293 11.3 20.9 0.00 0.00 0.00 62 1009.0
20260504014017 12 315 14.5 32.2 0.00 0.00 0.00 56 1008.8
20260504013017 13 293 14.5 25.7 0.00 0.00 0.00 52 1008.5
20260504012017 13 293 14.5 29.0 0.00 0.00 0.00 49 1008.3
20260504011037 13 293 19.3 27.4 0.00 0.00 0.00 48 1008.1
20260504010017 13 293 19.3 35.4 0.00 0.00 0.00 46 1008.1
20260504005037 14 293 14.5 29.0 0.00 0.00 0.00 43 1007.9
20260504004017 13 293 6.4 14.5 0.00 0.00 0.00 42 1007.7
20260504003017 13 248 6.4 16.1 0.00 0.00 0.00 43 1007.6
20260504002017 13 225 3.2 8.0 0.00 0.00 0.00 44 1007.4
20260504001037 13 225 1.6 6.4 0.00 0.00 0.00 45 1007.2
20260504000017 13 203 6.4 9.7 0.00 0.00 0.00 45 1007.3
20260503235017 13 225 6.4 16.1 0.00 0.00 0.00 45 1007.2
20260503234017 13 315 6.4 17.7 0.00 0.00 0.00 46 1007.6
20260503233017 13 293 16.1 27.4 0.00 0.00 0.00 44 1007.8
20260503232017 13 270 12.9 30.6 0.00 0.00 0.00 44 1008.0